TIME,DELAY(SENSOR),PRES,OXYGEN,RAWTEMP,T(OPTODE),TCPHASE,FLUOR,BETA(BETA700),BETA(BETA412),BETA(BETA440),CDOM,C(CSC),ED(ED412.40),ED(ED444.00),ED(ED489.70),ED(ED554.30),LU(LU411.80),LU(LU443.40),LU(LU489.60),LU(LU554.10),COMP,TILTX,TILTY,CHECK
1357616816,5807,865.4099731445312000,48.3197212219238300,661.2208251953125000,4.5877718925476070,53.7928314208984400,52,99,87,79,80,15101,2147754706,2147421915,2148008128,2147877138,2147640128,2147060708,2148261001,2147194276,3173,4,13,58574
1357620412,5806,941.8699951171875000,50.7285690307617200,673.0507812500000000,4.1973671913146970,53.6090583801269500,52,100,90,79,81,15103,2147757842,2147424512,2148008164,2147872676,2147642267,2147056548,2148265371,2147194733,1109,4,13,55056
1357624012,5808,973.7399902343750000,50.1379394531250000,675.4332275390625000,4.1185507774353030,53.7214393615722660,53,99,86,78,79,15103,2147759296,2147424283,2148010112,2147875318,2147644333,2147053952,2148265865,2147198043,274,4,13,14911
1357627612,5808,980.3800048828125000,49.8871688842773440,676.0266723632812000,4.0989069938659670,53.7593002319335940,53,97,84,79,80,15100,2147757805,2147425472,2148012699,2147875355,2147644909,2147055533,2148263862,2147197376,3259,4,13,26658
1357631212,5811,994.5100097656250000,50.1176300048828100,674.2882080078125000,4.1564369201660160,53.7101707458496100,52,98,89,79,80,15100,2147761901,2147420946,2148008484,2147873883,2147642148,2147056795,2148265270,2147198985,526,4,13,11284
1357634812,5811,994.2100219726562000,49.6527900695800800,675.0349731445312000,4.1317291259765625,53.7799415588378900,52,99,85,80,81,15080,2147758665,2147422784,2148011629,2147872640,2147643181,2147059904,2148264749,2147200018,348,4,13,15891
1357638412,5810,999.8099975585938000,51.7600402832031250,672.9464111328125000,4.2008190155029300,53.4644508361816400,52,99,89,79,79,15076,2147759515,2147425033,2148008996,2147874486,2147643574,2147058742,2148265206,2147200155,32,4,13,37979
1357642012,5808,1001.8800048828125000,51.3191108703613300,672.9016723632812000,4.2022972106933590,53.5249595642089840,52,97,84,80,80,15076,2147761371,2147424877,2148011776,2147875648,2147640402,2147056749,2148258916,2147194587,307,4,13,30847
1357645612,5809,1002.0499877929688000,50.1188507080078100,672.8128051757812000,4.2052359580993650,53.6918296813964840,53,100,88,80,81,15075,2147756187,2147423277,2148010358,2147875995,2147641289,2147061019,2148267428,2147195264,3586,4,13,18605
1357649212,5809,1013.3200073242188000,49.8686294555664060,672.3781738281250000,4.2196059226989750,53.7166404724121100,52,98,90,79,81,15074,2147757513,2147421769,2148007716,2147873408,2147640868,2147058432,2148261778,2147196160,67,4,13,28749
1357652812,5808,1003.6300048828125000,49.7485694885253900,671.7869873046875000,4.2391490936279300,53.7292785644531250,52,99,88,80,81,15073,2147760640,2147425298,2148012955,2147875126,2147641481,2147058605,2148267410,2147196736,221,4,13,17840
1357656412,5807,1003.8499755859375000,49.9761009216308600,672.9003906250000000,4.2023391723632810,53.7100296020507800,52,97,86,79,81,15072,2147753865,2147423533,2148010185,2147874230,2147642550,2147054290,2148262829,2147200329,3537,4,13,42760
1357660012,5807,991.2199707031250000,51.6133995056152340,673.4367065429688000,4.1846032142639160,53.4897994995117200,53,98,86,80,80,15053,2147758326,2147425673,2148008429,2147874185,2147638390,2147056548,2148262829,2147199762,3221,4,13,35732
1357663612,5809,982.1400146484375000,49.3381309509277340,675.9797973632812000,4.1004581451416020,53.8400306701660160,52,99,88,80,80,15050,2147754404,2147423844,2148007808,2147873664,2147642395,2147058651,2148266249,2147198564,182,4,13,46627
1357667212,5804,992.3499755859375000,50.2443313598632800,676.9078979492188000,4.0697331428527830,53.7254104614257800,52,130,84,78,81,15053,2147756306,2147422454,2148008923,2147872054,2147641261,2147054125,2148264384,2147197778,201,4,13,62164
1357670812,5810,993.7399902343750000,50.2110900878906250,676.9913940429688000,4.0669670104980470,53.7312507629394500,52,96,89,79,80,15050,2147758701,2147424749,2148008749,2147873261,2147645074,2147058020,2148265965,2147196077,3278,4,13,36931
1357674412,5810,994.3699951171875000,50.4642105102539060,676.8549804687500000,4.0714859962463380,53.6907882690429700,52,100,90,78,80,15055,2147757522,2147421778,2148008758,2147876827,2147640850,2147059995,2148259995,2147196443,207,4,13,42843
1357678012,5809,996.8499755859375000,49.1565818786621100,675.3903808593750000,4.1199650764465330,53.8558883666992200,53,98,88,79,82,15053,2147759835,2147422134,2148008146,2147879597,2147645357,2147057106,2148263387,2147196269,2994,4,13,9782
1357681612,5807,997.5100097656250000,49.9201812744140600,675.1275024414062000,4.1286678314208980,53.7442398071289060,53,101,85,79,81,15045,2147755757,2147422006,2148009600,2147871570,2147645248,2147061229,2148262939,2147198354,492,4,13,58343
1357685212,5810,998.0599975585938000,48.9961700439453100,675.7171020507812000,4.1091542243957520,53.8814697265625000,53,100,86,77,82,15046,2147755904,2147422464,2148008000,2147876196,2147640621,2147060269,2148263058,2147196928,3087,4,13,11083
1357688812,5808,1007.7700195312500000,48.7783088684082000,675.3333129882812000,4.1218590736389160,53.9096488952636700,53,98,83,78,81,15031,2147757796,2147421248,2148006774,2147874569,2147643364,2147057142,2148263579,2147191232,346,4,13,21610
1357692412,5805,1006.9400024414062000,49.2867889404296900,675.4691772460938000,4.1173591613769530,53.8376007080078100,52,98,87,80,81,15031,2147759762,2147422994,2148008850,2147873865,2147642697,2147054454,2148265252,2147196790,2801,4,13,49115
1357696012,5808,1001.6799926757812000,49.8098411560058600,674.3411865234375000,4.1546840667724610,53.7482185363769500,53,98,83,80,80,15037,2147756672,2147424594,2148006619,2147875062,2147640877,2147057673,2148262537,2147193152,374,4,13,57385
1357699612,5811,996.3300170898438000,49.1662788391113300,676.0626831054688000,4.0977129936218260,53.8614997863769500,52,98,88,79,80,15034,2147763008,2147423963,2148012269,2147873956,2147643456,2147058816,2148263149,2147195904,375,4,13,31492
1357703212,5808,1000.1400146484375000,50.0678787231445300,675.9664916992188000,4.1008992195129395,53.7371597290039060,53,103,87,80,81,15036,2147759506,2147421979,2148010468,2147874587,2147643492,2147059373,2148259291,2147199972,80,4,13,64507
1357706812,5806,999.6199951171875000,50.1786499023437500,676.5341796875000000,4.0821061134338380,53.7296905517578100,52,98,87,79,80,15032,2147757577,2147422052,2148009627,2147874304,2147644608,2147056676,2148265682,2147197568,3431,4,13,21536
1357710412,5808,1004.5300292968750000,49.4416503906250000,676.8872070312500000,4.0704169273376465,53.8339385986328100,52,99,87,79,81,15035,2147757558,2147427254,2148009984,2147875849,2147644955,2147059876,2148261403,2147197741,3505,4,13,29903
1357714012,5805,1010.5499877929688000,49.5566215515136700,675.4984741210938000,4.1163878440856930,53.8010482788085940,52,97,89,80,81,15033,2147757659,2147423908,2148012132,2147876086,2147642998,2147058861,2148265152,2147198016,3109,4,13,10790
1357717612,5809,1016.4799804687500000,49.9674682617187500,674.5745849609375000,4.1469588279724120,53.7362289428710940,52,98,86,79,80,15032,2147756754,2147424329,2148007414,2147875986,2147645330,2147064164,2148264777,2147195492,3543,4,13,58365
1357721212,5806,1015.9400024414062000,50.9671707153320300,673.2976074218750000,4.1892027854919430,53.5772399902343750,53,98,85,78,80,15029,2147755410,2147421449,2148010724,2147874889,2147642797,2147058697,2148265115,2147199716,100,4,13,4611
1357724812,5813,1015.9699707031250000,51.0565185546875000,673.4890747070312000,4.1828689575195310,53.5695915222168000,53,105,84,78,80,15025,2147759341,2147423259,2148011492,2147874962,2147642331,2147059748,2148261622,2147198473,531,4,13,30170
1357728412,5810,1005.4400024414062000,50.9148788452148440,673.3267822265625000,4.1882362365722660,53.5877609252929700,52,99,87,79,81,15028,2147756388,2147421732,2148009700,2147874532,2147643574,2147058486,2148256201,2147199360,3575,4,13,5674
1357732012,5808,1019.4799804687500000,50.8407402038574200,673.5150756835938000,4.1820111274719240,53.6005401611328100,52,98,88,80,82,15018,2147755803,2147423661,2148009206,2147879186,2147641883,2147060836,2148262198,2147196800,108,4,13,62878
1357735612,5810,1018.7700195312500000,50.2652816772460940,672.8438720703125000,4.2042059898376465,53.6722183227539060,52,98,94,79,79,15027,2147754587,2147421540,2148010029,2147875264,2147641380,2147057801,2148259072,2147198153,3320,4,13,4027
1357739212,5807,1022.0599975585938000,49.7489089965820300,672.8588256835938000,4.2037119865417480,53.7406196594238300,52,99,86,79,81,15024,2147757376,2147425398,2148009709,2147872749,2147641106,2147059666,2148263378,2147197513,197,4,13,63841
1357742812,5809,1014.9500122070312000,49.9461593627929700,673.1068725585938000,4.1955089569091800,53.7188606262207000,51,97,87,79,81,15029,2147758829,2147422061,2148007908,2147875200,2147641545,2147053339,2148259090,2147199798,124,4,13,33850
1357746412,5811,1008.7800292968750000,50.1195411682128900,674.1005249023438000,4.1626448631286620,53.7056007385253900,53,97,80,79,81,15025,2147756169,2147422893,2148013275,2147873024,2147640438,2147058112,2148260269,2147198125,3510,4,13,40931
1357750012,5807,1007.1599731445312000,49.3311691284179700,674.4716186523438000,4.1503701210021970,53.8183212280273440,52,98,89,79,81,15022,2147760768,2147424265,2148011830,2147876754,2147642916,2147054272,2148261568,2147196571,474,4,13,6825
1357753612,5805,1004.1300048828125000,49.0876693725585940,675.2340698242188000,4.1251411437988280,53.8594284057617200,54,99,84,79,81,15022,2147759744,2147421686,2148014171,2147877961,2147644964,2147059574,2148260672,2147199104,3426,4,13,23180
1357757212,5810,999.2199707031250000,49.2787208557128900,677.2894897460938000,4.0570960044860840,53.8611488342285160,52,98,93,78,80,15022,2147758820,2147425435,2148011172,2147875812,2147643602,2147053330,2148263350,2147195492,2640,4,13,19209
1357760812,5810,1001.2999877929688000,49.4036293029785160,677.0034179687500000,4.0665698051452640,53.8375205993652340,53,100,87,78,80,15022,2147757915,2147421357,2148013540,2147877165,2147642166,2147055478,2148264009,2147197485,378,4,13,5678
1357761656,5810,1005.5999755859375000,49.1957206726074200,677.2576904296875000,4.0581488609313965,53.8754386901855500,52,97,86,80,81,15086,2147757696,2147424676,2148010934,2147873088,2147642322,2147061330,2148262290,2147200027,2740,4,13,35836
